Wind_Speed
24 26 25 26 28 27 25 24 23 28 30 25 21 13 3 0 1 4 5 3 4 1 1 2 1 2 1 2 2 2 1 1 1 0 1 2 2 1 1 2 2 3 2 2 3 2 1 1 1 0 1 2 3 2 1 1 2 1 1 0 0 1 0 1 1 1 1 1 3 4 5 4 5 5 3 1 1 2 3 1 1 2 3 2 3 3 0
24 25 24 24 26 27 25 23 22 25 27 24 16 6 1 1 2 3 4 1 3 2 2 2 2 3 1 1 3 2 2 2 2 2 2 2 2 2 2 2 2 2 0 1 3 2 2 2 1 1 1 2 1 2 1 1 2 1 0 1 1 1 0 1 1 1 2 4 4 5 5 3 2 3 3 2 2 3 4 1 1 3 2 1 4 3 1
24 26 24 23 24 26 24 21 20 23 24 20 11 2 0 1 2 1 3 1 1 1 1 1 1 2 2 2 2 2 2 3 3 3 3 2 2 1 1 1 2 2 1 1 2 1 1 1 1 1 2 1 1 1 0 1 1 0 1 2 1 1 1 0 2 3 4 5 4 3 4 3 2 2 3 3 4 2 2 1 3 4 2 2 3 2 2
23 25 24 22 23 25 23 19 18 21 22 18 8 1 1 1 0 1 1 2 1 0 1 1 1 2 2 2 2 2 2 2 1 1 2 2 2 1 0 1 2 2 2 2 2 1 0 1 2 3 3 3 1 2 2 0 0 2 4 4 2 1 2 1 3 4 4 3 1 1 2 3 3 3 3 4 4 3 1 1 2 1 3 1 1 3 4
21 23 23 21 22 24 21 17 17 19 20 15 7 2 1 0 0 1 1 1 0 1 1 1 1 1 1 1 1 3 2 2 1 2 2 1 1 2 1 2 3 3 4 3 2 1 1 1 3 3 2 2 1 2 2 1 1 1 3 3 1 2 2 2 2 3 3 2 3 4 2 1 3 3 3 5 3 3 4 2 1 2 3 1 3 5 5
21 22 22 19 21 24 20 17 17 18 18 13 6 1 0 0 0 0 1 1 1 1 1 2 2 1 1 1 1 2 2 0 0 1 1 1 2 3 1 3 5 5 5 4 3 2 1 1 2 3 1 1 0 0 1 1 3 2 1 1 0 2 2 2 2 2 2 1 4 4 3 2 1 1 3 4 3 3 5 3 1 1 3 3 6 6 5
20 22 20 18 21 22 19 16 18 18 15 11 4 1 1 1 0 1 0 1 1 1 2 3 2 2 1 1 2 2 2 2 1 1 1 2 0 2 3 5 5 5 5 4 3 4 3 2 3 3 2 1 0 1 1 1 2 1 2 2 1 1 2 2 1 2 2 2 3 2 1 2 1 1 2 2 4 5 4 3 2 1 2 3 4 5 3
19 21 20 17 19 20 17 16 18 18 14 8 3 2 2 1 1 1 1 1 1 2 2 2 2 1 1 2 2 2 3 2 1 1 3 2 1 2 3 4 2 4 5 4 4 7 6 4 4 5 4 2 2 1 1 1 0 1 1 1 1 1 1 1 1 2 2 1 1 1 0 2 3 2 1 1 3 5 4 2 1 1 2 2 3 4 2
19 21 19 16 16 17 16 16 19 19 13 7 3 3 4 3 2 1 2 1 0 1 1 1 1 1 1 2 1 1 3 1 2 3 4 4 3 1 1 3 1 2 3 5 6 8 8 5 5 8 6 3 3 2 2 3 2 1 1 1 1 1 0 2 1 3 2 0 2 3 2 2 5 5 3 2 2 2 3 3 2 2 1 1 3 3 1
17 20 19 15 15 15 13 15 19 18 13 8 3 3 5 4 1 1 2 1 0 1 0 1 1 1 0 0 0 1 2 1 3 2 2 3 4 1 1 1 2 2 5 9 8 7 7 4 2 4 3 2 2 1 2 4 1 1 2 1 1 1 2 3 2 3 2 1 3 3 2 3 5 4 1 1 3 2 3 4 3 4 3 2 3 1 2
16 19 18 14 13 12 10 12 15 14 13 10 5 3 5 4 2 1 1 1 0 0 0 1 1 1 1 2 2 3 3 2 2 2 2 2 2 2 2 2 3 3 5 5 1 3 5 4 4 5 5 5 4 1 1 3 1 1 1 1 1 2 2 2 1 2 1 2 2 1 3 4 1 1 1 2 3 4 4 3 5 6 5 3 2 1 2
15 18 17 14 12 10 7 9 11 11 11 10 5 2 3 4 2 1 1 1 1 0 1 2 1 1 1 2 3 4 6 6 4 3 6 6 5 5 4 3 4 2 1 4 7 8 7 5 4 4 5 6 5 5 4 2 2 2 1 1 2 3 2 2 0 2 1 1 0 4 4 2 1 1 1 2 2 3 5 6 6 7 7 6 5 3 2
14 17 16 13 12 9 5 5 8 9 9 9 6 2 3 3 2 1 1 1 2 1 2 2 2 4 4 2 3 5 7 8 7 5 8 9 8 6 4 5 5 2 3 8 9 7 5 3 2 1 3 4 3 4 4 4 4 3 1 0 2 3 3 2 1 1 1 1 2 3 2 1 2 4 3 2 2 3 4 6 8 9 9 8 6 4 4
13 15 15 12 11 11 6 2 4 7 8 8 6 4 3 2 1 1 1 1 2 1 1 3 3 4 4 2 3 4 5 7 6 4 4 5 6 7 5 4 3 2 4 4 4 4 2 2 1 1 1 2 1 1 1 3 3 4 3 2 0 3 3 2 1 1 1 1 2 2 3 1 3 4 3 4 5 3 2 4 4 8 9 7 5 5 5
13 14 15 12 10 11 7 1 1 5 6 6 6 5 3 3 3 2 1 1 2 1 2 3 1 1 2 1 1 2 4 4 3 3 2 2 4 6 4 3 2 3 3 0 2 3 2 2 2 2 1 1 2 1 0 1 2 3 3 2 2 1 1 2 3 1 0 1 2 3 4 2 1 3 3 4 3 3 2 3 3 5 9 8 6 6 6
12 13 13 12 10 10 8 3 3 2 4 6 6 4 3 2 2 2 1 1 2 1 2 2 1 0 1 2 1 2 3 2 2 4 3 2 3 5 4 3 2 2 2 2 2 2 1 2 3 2 2 1 1 0 0 1 1 2 2 2 4 3 2 1 2 2 2 3 3 2 3 2 1 3 4 3 2 2 3 4 4 3 8 8 8 8 8
12 14 13 12 10 9 9 5 4 3 3 6 7 5 4 2 1 2 1 1 2 3 1 2 2 0 1 2 1 1 1 1 2 2 2 3 4 6 6 5 1 2 2 2 1 2 2 2 2 1 2 1 1 1 1 1 2 2 1 2 3 3 2 1 3 2 3 4 3 2 3 2 0 2 3 4 3 2 3 4 2 2 6 8 8 9 8
12 14 13 12 9 9 9 6 5 6 3 4 6 5 3 2 1 2 1 1 3 3 1 2 4 3 1 2 2 1 1 1 1 1 2 3 2 4 7 5 1 1 1 1 1 2 2 2 1 2 2 1 1 1 1 2 2 2 2 2 2 1 1 0 3 2 2 4 4 3 3 1 1 2 2 4 3 2 3 3 2 2 6 7 7 8 8
12 13 14 12 9 8 8 6 4 5 5 3 6 4 2 3 3 3 2 1 2 3 1 0 3 3 0 1 1 0 0 0 1 2 3 2 1 5 6 4 2 1 1 1 2 2 2 2 1 1 2 2 1 1 2 2 1 1 2 2 1 2 2 0 1 2 1 2 3 2 2 0 1 2 4 3 3 3 2 1 2 2 7 8 7 8 8
11 13 15 12 8 8 7 5 5 4 7 6 5 5 2 2 1 2 2 1 2 4 5 4 6 6 3 2 3 3 2 2 1 1 3 2 4 5 3 3 1 1 0 3 2 1 2 3 2 1 2 2 2 2 1 1 1 1 2 2 1 2 2 2 2 2 1 2 2 2 2 0 2 4 5 3 3 1 2 2 1 2 6 8 8 8 7
11 14 14 10 8 7 5 4 5 5 7 9 6 4 2 3 2 1 2 1 2 4 3 2 4 7 7 6 7 6 6 6 4 2 3 2 2 2 1 0 1 1 1 2 3 1 1 2 2 1 1 1 1 2 1 2 2 1 1 1 1 3 3 2 2 3 2 3 3 1 1 1 0 2 2 1 1 2 3 2 0 2 5 7 7 7 7
12 13 11 8 7 7 4 3 5 7 7 10 8 4 3 5 4 3 4 3 5 7 9 12 16 20 22 22 19 17 17 16 14 9 5 3 2 2 2 3 2 2 1 1 1 1 1 2 2 2 2 2 2 1 0 2 2 2 2 2 2 2 1 1 1 2 2 2 1 1 1 0 2 3 2 2 2 2 2 1 1 3 4 4 5 6 7
12 12 9 7 7 6 4 3 4 6 5 9 9 5 3 4 5 5 5 5 6 9 15 19 20 20 20 19 17 17 19 21 22 18 12 6 3 3 4 4 3 2 1 1 1 0 2 3 2 1 2 2 2 2 1 2 2 1 2 2 1 1 0 1 1 2 1 2 1 1 1 1 1 2 1 1 1 1 2 2 2 1 1 1 1 3 8
11 11 8 6 7 6 5 4 4 5 4 7 10 8 5 4 5 5 5 4 3 5 8 7 6 7 7 6 7 9 11 16 21 22 18 12 6 3 2 3 3 1 1 1 1 1 1 2 1 1 2 2 3 3 2 2 2 2 2 2 1 1 3 1 1 3 2 2 1 1 1 2 1 1 1 1 2 3 4 5 6 6 5 6 7 3 6
10 9 7 6 7 8 7 6 6 5 4 5 11 11 7 6 6 5 4 2 1 3 4 3 4 5 6 8 9 10 10 11 14 17 17 17 15 9 3 0 1 2 4 2 0 1 1 1 1 2 2 2 2 2 1 2 2 2 3 2 1 3 4 2 2 3 2 0 1 0 1 2 2 2 2 3 3 4 5 7 10 10 9 9 10 6 1
9 7 7 6 6 6 5 6 8 7 4 2 8 11 9 7 7 6 4 2 1 2 3 4 5 4 7 12 15 14 11 10 11 14 16 20 23 19 11 6 4 4 4 3 1 1 1 1 1 1 2 2 2 1 1 1 1 1 2 1 2 3 4 2 3 4 1 0 2 3 2 1 1 1 1 3 3 5 6 7 9 11 10 8 9 9 7
7 7 7 7 5 3 4 5 7 7 5 4 7 11 11 10 9 9 7 4 2 2 3 3 4 7 10 16 20 16 11 8 10 13 15 18 20 20 16 10 6 4 4 2 1 1 1 1 1 1 1 1 1 1 1 1 1 1 2 2 2 4 4 3 2 3 2 2 6 6 3 3 3 2 2 3 3 5 7 7 6 8 10 9 8 7 8
7 7 7 6 5 4 4 5 6 7 6 5 6 9 11 13 13 12 12 9 5 3 2 3 7 11 11 12 15 15 11 8 8 11 14 16 17 17 14 9 6 4 2 1 1 1 1 2 1 1 2 2 2 1 1 1 1 2 2 4 5 5 5 6 5 2 1 4 9 8 2 4 4 2 2 3 3 5 8 6 5 6 9 10 8 5 4
7 6 6 5 5 5 5 4 5 7 7 6 5 7 8 11 14 14 14 13 9 4 3 5 7 8 7 9 13 14 10 6 6 10 12 12 13 14 11 8 6 4 2 1 1 0 1 1 1 1 1 1 2 2 0 1 2 2 2 5 5 3 4 6 4 2 1 4 9 7 3 6 7 4 2 2 2 5 8 6 4 6 9 9 8 6 5
5 5 6 6 6 7 6 5 6 7 5 3 4 4 3 4 7 10 13 14 11 6 2 3 4 4 5 7 9 9 7 6 5 5 8 9 10 11 10 7 4 4 3 2 1 0 1 0 1 1 1 1 1 2 1 1 2 2 1 4 5 3 3 3 1 2 2 5 7 5 4 8 8 4 1 1 2 3 6 5 5 8 10 10 8 6 6
6 6 6 6 7 7 7 6 6 6 5 3 3 2 1 0 1 4 8 11 12 7 2 3 4 4 4 4 4 5 8 7 4 1 2 3 4 6 9 6 2 2 2 1 1 1 1 0 1 1 1 1 1 1 2 1 2 2 2 4 5 4 5 4 2 3 5 8 8 7 7 9 7 3 2 2 1 3 6 6 8 10 10 9 8 7 8
7 7 8 8 8 7 6 5 5 6 6 7 6 5 3 1 0 3 8 11 10 5 1 3 3 3 3 3 3 5 7 5 2 1 0 1 1 3 4 4 2 0 1 1 0 1 0 0 1 1 1 1 1 1 2 2 3 2 0 3 4 4 4 5 4 6 8 10 11 10 8 7 5 3 2 2 2 5 7 8 11 13 11 8 9 11 12
6 6 7 7 6 6 6 6 5 6 7 9 11 11 9 5 4 8 11 11 6 3 1 2 3 3 2 3 3 4 4 2 1 1 1 1 1 1 2 1 1 1 3 3 1 1 1 0 1 1 1 1 0 1 2 3 3 1 1 1 3 4 4 5 6 8 9 7 6 7 9 9 6 4 5 5 4 5 8 11 12 13 11 9 9 11 15
4 4 4 5 5 6 6 5 6 7 6 7 9 10 8 8 10 13 13 8 2 2 2 2 2 3 3 2 1 3 4 2 1 1 2 2 1 1 1 1 1 1 2 2 0 0 1 0 0 1 1 2 1 1 2 2 1 1 1 1 2 4 5 5 6 8 7 3 2 5 9 11 10 8 8 8 6 6 9 12 13 11 9 8 9 10 13
4 4 4 4 4 5 6 6 7 6 5 5 6 5 4 9 15 17 15 9 2 0 2 2 2 2 4 2 0 2 4 2 1 1 1 1 1 1 1 0 1 1 0 1 0 1 0 1 0 2 1 1 1 2 3 3 2 3 3 3 5 7 7 6 7 6 5 4 5 8 11 13 14 11 9 9 8 8 8 9 11 11 9 7 8 10 11
5 4 5 5 5 5 6 6 7 6 4 4 2 2 2 7 13 16 17 14 7 3 1 1 1 2 2 2 1 3 5 2 0 1 1 0 1 2 1 1 1 0 0 0 1 1 1 0 1 2 2 2 2 3 3 3 4 5 5 6 8 6 5 7 10 9 7 7 9 11 12 13 13 11 10 9 9 9 9 8 9 10 10 8 7 8 10
5 5 6 6 5 4 4 5 6 6 4 6 5 4 5 6 8 7 8 9 9 6 3 2 3 3 1 2 2 2 3 2 0 1 1 0 1 2 1 1 1 1 1 1 1 1 1 1 1 2 2 3 2 2 3 4 4 4 4 6 7 4 2 6 12 13 11 10 10 10 10 11 11 10 10 11 10 9 11 10 8 9 11 9 7 8 10
6 6 6 5 3 3 3 4 6 6 5 7 6 2 1 4 4 3 2 3 4 5 3 2 4 3 1 2 3 2 3 2 1 1 1 0 1 1 1 1 1 0 0 1 1 1 1 0 0 2 3 2 2 3 4 4 4 3 2 5 7 5 6 9 13 14 13 10 9 9 10 10 10 9 10 11 10 9 9 9 9 10 11 10 9 11 13
5 4 4 3 3 2 1 3 5 6 6 6 4 3 1 2 1 2 2 2 2 2 3 3 4 3 3 5 4 1 1 1 1 1 1 0 1 1 0 1 1 0 0 0 1 1 1 0 0 2 3 1 2 4 3 2 2 3 3 5 6 7 8 10 11 13 13 12 13 14 13 12 12 11 9 8 8 7 8 9 11 12 12 12 13 13 13
4 3 3 3 3 2 1 2 5 5 5 3 2 1 1 1 1 1 2 2 2 2 2 3 2 2 4 5 4 1 1 1 1 1 1 1 1 0 1 1 0 1 1 1 1 1 2 2 1 2 3 3 3 3 2 1 2 2 3 5 6 9 10 10 8 7 7 9 13 15 14 14 15 13 11 10 9 8 8 9 11 12 13 13 13 13 14
3 3 2 2 3 5 3 3 5 4 2 1 1 0 1 1 1 1 1 2 3 2 2 2 2 2 3 4 4 3 2 1 0 1 1 1 0 1 2 2 0 1 2 2 1 1 2 2 2 3 3 4 4 2 2 1 2 2 3 5 7 9 10 9 6 5 6 8 10 9 11 15 16 14 13 13 12 10 10 11 12 13 15 14 14 15 18
3 3 3 5 6 5 2 3 3 2 0 0 0 0 1 1 1 1 2 3 2 1 2 3 2 1 1 3 3 2 1 1 1 0 1 1 0 0 2 2 0 2 2 1 1 1 2 3 3 3 4 4 4 3 3 3 3 3 5 7 8 9 10 9 6 6 9 12 11 10 12 15 16 15 16 15 13 12 14 15 14 14 15 17 18 20 21
5 5 5 4 4 2 1 2 1 1 1 1 1 0 1 1 1 2 2 2 1 1 1 2 1 1 1 2 2 1 0 0 1 0 1 1 1 1 2 2 1 1 1 1 1 3 4 4 4 4 3 3 3 3 3 4 3 4 5 6 7 9 10 9 7 8 10 12 12 13 14 15 14 14 16 17 16 14 14 15 17 19 19 20 20 20 21
4 4 2 2 2 1 1 1 1 1 1 1 1 2 3 2 2 2 2 1 1 2 1 1 1 1 1 2 2 1 1 1 1 1 1 1 0 1 2 2 1 1 0 1 2 3 4 4 4 3 2 2 3 3 4 5 6 6 6 6 8 9 9 9 9 9 9 10 11 13 14 15 14 14 15 16 19 19 15 14 17 22 24 23 21 20 22
2 2 1 0 0 0 0 0 0 1 2 2 2 3 3 2 2 3 2 1 0 1 1 1 1 1 1 1 1 1 1 1 1 1 1 0 1 1 1 1 1 1 1 2 2 3 3 3 3 3 3 4 4 3 4 6 7 7 7 8 9 10 9 9 9 8 9 10 12 13 14 14 15 15 13 14 18 23 23 21 21 24 24 22 20 20 23
2 1 1 1 1 1 1 1 1 1 2 2 2 3 3 2 1 1 1 0 1 1 1 1 1 1 1 1 1 1 1 2 2 2 1 1 2 1 0 0 1 2 2 3 3 4 4 4 3 4 5 6 4 3 4 5 6 7 8 9 10 10 10 9 9 8 10 12 14 14 13 14 15 15 14 13 15 21 27 28 29 30 28 24 21 22 26
1 0 1 1 1 1 1 2 2 1 1 1 2 2 2 1 1 1 1 2 2 0 1 0 1 2 1 2 1 1 1 2 2 1 1 1 1 1 0 1 2 2 2 4 4 4 4 4 4 5 5 5 3 3 4 6 7 8 8 8 10 11 10 9 9 9 12 14 15 13 13 14 15 16 16 15 14 17 24 29 30 32 31 29 27 27 28
1 1 0 1 1 2 2 1 1 1 1 1 1 1 1 1 2 2 1 1 1 1 2 2 2 1 1 2 2 1 1 2 2 1 0 0 1 1 0 2 2 2 2 4 4 4 4 4 3 3 3 3 4 5 5 7 8 9 9 9 10 12 11 10 10 12 14 15 15 13 13 14 15 16 17 16 15 15 20 25 28 29 31 31 30 29 27
0 1 0 0 1 1 1 1 1 1 1 1 0 1 1 1 2 2 2 1 1 1 1 1 1 1 1 1 2 2 1 1 1 1 1 1 1 1 1 2 3 3 3 3 4 4 3 3 2 1 1 2 4 5 6 6 8 9 9 10 11 11 11 11 12 13 15 15 14 13 14 15 15 15 16 17 16 15 18 23 27 29 30 31 30 28 25
1 1 1 1 2 1 1 1 2 2 1 1 1 0 0 1 1 1 1 1 1 1 1 1 0 1 1 0 1 2 2 1 2 2 2 2 2 2 2 3 3 3 2 2 3 3 3 2 1 2 2 3 4 5 5 6 7 7 8 10 11 11 11 13 14 14 16 19 19 18 16 16 16 16 17 19 20 20 20 23 26 28 29 29 28 26 24
1 1 1 2 3 1 1 1 2 2 1 0 0 1 1 1 1 0 1 0 1 2 1 1 1 1 1 1 1 1 1 2 2 2 2 2 2 2 3 4 3 2 2 2 2 2 1 1 2 2 2 3 4 4 5 6 7 7 9 11 12 12 13 16 16 14 15 19 21 18 14 14 17 20 24 26 26 22 18 18 22 26 26 25 24 23 22
1 0 1 2 2 1 2 2 2 2 2 2 1 1 1 1 1 1 3 3 2 2 1 1 1 1 1 1 1 1 2 2 2 1 1 1 2 3 3 3 2 2 2 2 2 1 1 2 2 3 2 2 3 4 5 6 7 8 10 12 14 14 15 16 17 15 15 16 18 17 15 16 20 24 27 26 23 18 14 14 18 23 24 22 21 20 19
Wind_Direction
347 347 349 353 355 354 351 351 357 359 357 358 357 352 343 343 318 345 349 181 182 320 167 161 302 203 220 321 231 231 250 229 255 176 183 222 209 169 203 203 192 211 218 174 175 187 174 139 120 210 225 209 229 280 4 198 198 175 185 171 137 185 275 321 296 321 308 217 113 111 135 127 94 66 41 30 285 268 243 251 336 262 235 210 246 267 343
347 346 347 352 354 355 353 351 357 2 360 355 350 345 48 348 269 332 357 197 201 242 195 190 215 200 214 268 233 220 208 223 247 248 237 215 179 179 200 197 188 189 145 152 170 178 193 191 174 217 187 169 244 296 324 244 199 187 21 152 171 198 331 311 260 210 180 171 152 147 152 151 126 83 54 13 341 279 238 214 242 247 266 274 252 263 55
346 345 346 351 352 352 352 351 355 0 358 355 351 326 280 318 224 274 343 6 168 232 223 178 188 188 179 207 239 242 209 223 242 250 256 234 188 190 228 200 148 121 111 127 126 130 225 195 175 190 194 223 298 298 300 284 233 195 89 133 155 167 117 237 254 237 213 201 193 172 148 137 139 107 84 38 10 333 240 209 198 217 336 344 249 279 38
344 343 344 348 348 349 350 350 355 358 357 357 356 292 294 346 107 318 353 43 57 28 8 357 199 166 165 199 206 196 213 262 261 218 242 235 183 183 305 122 113 111 165 155 120 112 14 94 170 181 187 207 250 341 357 329 161 76 98 114 117 121 119 210 257 273 274 269 332 66 129 147 143 106 81 65 33 18 10 272 220 260 329 300 262 331 331
342 342 343 344 345 347 349 350 356 358 357 358 354 303 299 39 2 357 8 35 62 128 58 11 351 163 211 223 184 181 213 295 324 182 207 242 193 203 185 164 178 178 175 166 142 142 108 114 173 173 195 228 246 332 335 314 316 6 104 116 108 136 149 188 220 276 298 323 15 15 351 136 135 118 85 87 68 50 62 46 318 305 279 266 22 343 304
341 343 342 342 343 346 350 353 358 359 356 357 358 312 307 17 32 58 314 302 191 171 9 0 344 299 243 233 225 206 203 272 265 209 256 304 198 195 201 214 210 189 170 167 163 151 138 218 191 170 190 267 289 289 279 327 328 326 132 107 39 155 164 170 191 277 304 13 26 10 350 1 92 104 90 98 94 72 75 85 154 200 246 296 341 325 300
340 342 340 342 343 347 355 358 359 360 357 359 10 355 342 2 85 126 272 292 254 268 319 336 309 271 236 229 224 214 206 206 225 258 304 322 253 190 223 228 207 181 168 154 157 175 179 196 218 204 166 163 202 195 191 291 333 358 96 62 1 208 173 156 207 269 298 5 20 24 358 292 300 29 60 112 111 94 90 115 154 217 261 291 311 303 309
337 339 338 341 343 350 4 4 358 0 3 9 31 36 21 351 326 9 327 266 271 291 310 316 292 294 208 217 204 212 219 207 350 261 231 261 287 168 228 256 211 170 175 169 186 199 192 190 205 188 168 180 211 210 211 209 52 36 82 92 29 283 222 130 176 238 254 336 8 38 102 261 274 317 356 173 140 123 122 135 158 255 265 300 301 284 317
334 337 336 339 343 354 10 8 358 1 8 21 46 35 11 331 301 336 302 274 5 311 333 356 300 282 208 204 174 209 215 187 344 268 219 237 251 195 309 305 289 147 183 204 219 205 190 197 199 178 170 180 189 190 205 197 186 54 93 130 49 313 205 129 174 225 222 20 343 316 329 290 272 274 277 255 224 180 147 143 182 222 203 280 283 267 329
331 334 333 336 343 355 12 11 1 2 15 32 38 14 7 345 298 313 296 281 34 333 60 94 248 246 245 343 319 264 240 18 338 293 237 256 253 220 25 268 216 182 202 216 227 205 182 189 178 154 131 108 142 189 169 169 174 59 147 126 39 163 163 148 189 233 195 97 4 342 331 278 267 269 276 291 283 253 176 159 188 206 193 234 257 241 344
330 330 329 333 341 352 11 10 3 11 24 28 23 8 10 1 323 310 279 250 274 20 210 210 227 221 52 22 346 301 289 320 329 283 287 291 247 243 298 248 205 212 219 218 205 124 137 120 102 104 79 78 96 64 125 142 41 1 182 152 106 154 154 138 205 258 192 96 25 311 249 261 271 64 14 282 263 246 235 214 199 200 203 223 230 108 6
325 326 326 331 336 347 8 3 4 20 18 8 9 14 0 353 325 292 251 254 255 174 254 250 214 239 295 337 325 294 287 298 303 268 270 280 276 278 277 212 198 232 207 127 106 110 118 101 90 88 58 58 82 80 87 94 23 1 228 190 142 146 136 120 145 282 222 98 333 239 246 283 58 108 278 274 250 247 271 271 234 212 209 199 176 141 134
322 324 324 328 331 336 354 2 7 18 7 356 2 353 325 338 328 268 242 263 249 213 258 267 244 253 268 275 273 275 285 293 291 261 254 263 267 269 241 197 206 230 140 132 118 110 110 84 62 72 32 31 70 95 78 48 16 9 31 117 157 156 149 139 118 333 262 199 216 242 278 354 242 252 254 233 244 246 267 267 237 216 211 196 175 155 157
320 321 322 324 326 328 336 7 8 8 7 358 352 335 312 308 289 299 328 263 255 211 254 274 264 246 243 233 252 282 299 300 295 264 234 244 260 263 252 234 228 184 168 152 98 84 103 100 92 193 356 8 339 190 106 56 28 19 14 356 169 157 153 164 184 215 260 233 229 270 300 276 221 238 221 205 229 246 263 279 244 210 210 205 176 159 164
315 317 320 320 318 324 329 309 306 353 4 353 338 331 318 287 242 249 314 277 277 266 219 241 255 199 215 212 237 289 303 311 310 289 254 246 264 265 264 276 248 175 174 240 55 88 119 137 152 187 214 236 245 247 225 112 61 40 24 27 83 127 173 199 211 210 132 244 262 273 284 290 182 182 181 188 227 250 237 267 264 201 197 197 175 162 169
309 312 316 315 313 320 323 296 251 310 352 351 344 333 318 309 190 204 281 290 266 271 225 225 237 23 277 259 241 272 283 309 320 301 292 303 302 300 308 310 267 184 135 74 72 95 107 141 164 189 196 179 176 138 5 225 142 82 65 88 95 86 72 139 189 184 169 212 246 244 256 296 81 161 160 157 189 212 218 253 271 186 179 184 172 166 174
306 308 311 311 311 316 319 301 238 241 322 354 354 333 304 306 166 202 249 234 238 269 286 189 187 203 302 259 233 236 245 291 324 310 306 317 321 324 326 329 310 177 150 110 97 103 116 125 128 188 198 158 136 139 133 186 176 145 141 134 116 102 86 154 202 192 178 208 233 244 244 279 17 186 164 141 151 173 221 244 286 113 172 181 168 167 176
301 302 305 309 309 310 315 304 242 230 261 336 341 328 287 277 252 193 192 235 246 259 277 191 210 235 273 269 273 289 287 302 327 305 292 292 301 317 318 320 326 154 152 168 166 134 134 144 149 191 183 138 157 202 143 171 193 166 141 131 117 112 87 174 224 203 189 214 234 260 254 248 246 215 147 124 146 194 229 249 17 106 182 180 164 168 174
290 296 305 309 308 306 310 311 274 234 224 278 325 334 282 277 272 202 190 206 227 243 319 43 230 235 158 59 301 45 72 313 317 310 289 271 337 311 294 269 237 291 38 125 153 150 161 167 140 197 179 161 189 193 145 166 179 122 137 159 183 171 140 113 222 195 179 215 238 274 273 280 84 110 112 137 196 214 247 316 356 187 183 175 170 169 163
284 300 308 307 305 302 301 312 310 261 225 242 302 329 292 262 218 181 202 205 240 269 285 270 258 259 259 259 257 254 263 261 237 260 260 262 2 338 282 187 172 314 187 152 154 179 193 168 128 171 195 164 154 163 160 192 189 157 178 200 202 183 183 193 188 165 136 177 207 251 262 112 114 133 141 184 230 292 351 342 335 192 179 174 175 167 151
291 301 305 302 299 300 297 304 313 295 244 236 270 313 259 195 139 21 312 273 240 264 288 293 281 275 267 261 252 245 252 254 242 247 265 269 344 337 276 189 352 300 228 162 157 169 210 152 130 159 179 108 143 183 192 191 188 193 229 222 195 189 200 216 189 180 195 194 193 232 333 43 256 190 172 209 304 344 325 299 68 171 187 185 178 162 146
290 297 300 299 295 292 287 286 308 308 262 234 245 281 255 228 245 291 306 279 243 254 277 288 291 286 280 276 268 256 250 252 253 257 269 277 260 241 269 301 281 240 273 357 127 143 148 147 148 159 152 145 167 177 231 220 193 156 159 203 225 203 203 274 206 181 216 238 251 333 348 352 271 267 285 326 348 6 333 303 113 158 188 199 188 163 150
293 300 297 296 300 293 269 261 300 314 274 231 232 253 264 246 252 272 292 284 262 266 272 276 282 284 278 275 276 267 255 249 246 243 236 234 253 248 240 258 264 235 236 296 338 296 163 148 138 157 164 167 161 147 184 253 229 155 163 195 287 42 108 286 217 154 210 269 291 314 288 277 276 266 276 303 333 56 55 53 60 89 159 206 248 180 159
296 299 290 292 304 295 265 249 274 305 288 237 232 245 272 271 260 271 279 268 268 284 273 260 263 275 276 290 306 291 260 242 240 240 230 214 220 258 232 217 235 273 310 320 356 292 190 122 99 200 186 169 171 171 198 238 220 170 172 177 132 157 184 214 157 154 183 210 174 186 258 285 296 222 166 114 68 64 71 77 65 49 50 42 16 343 180
292 293 289 291 297 291 269 246 253 286 303 246 230 237 258 269 256 254 262 258 277 306 302 287 266 273 305 318 302 284 275 260 247 241 227 210 213 233 261 148 204 313 333 334 225 231 235 117 118 198 186 176 197 198 214 232 199 181 199 205 152 166 185 194 165 164 178 3 63 82 288 290 279 236 173 141 117 97 93 97 88 74 65 55 40 27 185
287 282 282 284 291 296 277 249 250 269 299 266 230 229 238 256 253 243 254 283 247 233 273 290 276 289 339 325 303 294 296 279 248 234 225 217 219 228 245 276 301 322 325 308 232 237 252 139 125 171 172 181 208 195 170 172 129 161 212 227 80 136 173 177 143 149 163 3 157 178 189 158 187 236 177 154 144 120 105 102 100 92 83 69 55 49 52
277 273 280 284 282 288 286 264 251 251 262 267 241 229 230 246 250 238 237 244 223 228 257 265 280 313 324 310 302 307 311 282 246 229 224 222 221 225 235 253 276 298 310 302 258 243 216 132 92 68 112 136 144 123 99 94 117 159 194 168 148 159 163 156 155 177 217 187 172 182 180 127 147 206 183 158 152 127 110 102 103 101 95 88 70 50 55
274 272 280 281 265 267 291 280 246 245 266 285 267 244 240 246 247 240 238 239 239 264 289 273 288 305 309 300 302 312 316 296 256 229 222 220 218 219 224 231 238 251 288 305 255 243 112 108 117 110 120 143 145 128 72 113 177 229 207 177 186 187 170 170 179 195 251 163 166 176 154 105 134 177 160 144 147 122 109 103 104 97 91 96 98 78 64
275 271 273 272 256 261 295 294 245 250 275 298 300 285 266 253 247 240 237 235 232 243 291 289 283 292 302 305 308 313 319 309 259 231 224 220 214 212 213 218 222 220 215 228 241 234 72 93 142 112 108 191 158 140 161 185 204 246 211 175 185 198 180 176 166 128 94 157 163 169 125 110 135 157 154 166 169 124 113 113 112 95 82 86 99 102 101
272 270 270 272 257 255 279 285 250 247 267 282 283 286 271 238 235 234 229 225 219 216 263 289 279 297 318 308 300 302 316 323 298 244 221 213 208 202 195 195 211 226 223 226 242 122 95 99 114 99 287 273 187 156 171 187 218 262 218 175 181 178 164 163 104 70 126 139 143 148 107 105 121 135 130 262 262 120 116 113 102 97 90 86 94 105 113
271 264 264 272 262 257 275 275 241 234 249 255 244 248 248 205 240 227 209 199 197 200 232 270 273 297 306 281 273 293 307 313 315 283 201 188 186 178 169 166 186 248 236 216 156 146 178 248 67 100 106 349 7 149 155 176 227 246 198 169 175 167 157 153 99 83 118 120 118 110 96 102 119 130 137 227 263 95 103 96 89 93 94 98 115 130 126
269 262 267 271 260 255 267 260 228 222 239 245 242 242 255 299 51 152 163 169 178 192 263 279 277 302 308 279 286 302 301 300 310 329 11 85 110 138 147 159 175 99 1 337 110 109 112 259 60 77 74 15 10 120 155 207 232 252 68 137 156 161 159 152 122 116 131 133 126 117 113 131 160 163 139 171 141 100 103 99 95 97 99 107 122 126 116
267 266 274 274 261 250 252 251 247 250 255 255 255 252 247 236 187 152 149 155 171 202 255 277 281 297 305 297 307 319 313 303 298 342 33 26 5 109 118 160 165 79 11 343 9 49 335 262 115 95 110 100 62 160 197 218 224 256 16 87 145 159 161 149 133 137 148 150 140 139 149 161 165 134 116 120 103 96 109 110 107 111 117 117 113 110 107
260 263 279 280 264 250 245 246 253 259 262 260 260 258 242 215 193 173 160 153 164 236 238 261 289 292 293 289 323 2 356 349 309 356 35 18 338 146 124 1 19 77 358 346 34 245 296 28 87 230 168 128 126 231 235 241 228 147 89 102 137 143 138 132 138 148 153 144 82 100 122 130 127 119 120 121 109 105 117 121 122 125 125 115 108 107 109
242 256 272 275 260 246 247 250 247 250 258 254 257 270 234 199 195 191 190 191 185 155 216 226 241 279 302 303 323 5 359 5 348 329 357 39 25 54 131 76 40 142 310 354 29 210 205 76 273 243 187 146 189 219 233 247 220 177 159 154 153 149 146 151 158 153 141 119 107 109 118 128 131 131 133 134 134 135 133 132 132 126 113 103 108 107 103
247 249 253 264 261 244 242 242 235 233 237 218 204 38 83 179 188 196 206 215 231 263 277 266 227 240 292 313 308 343 348 349 129 327 303 143 32 16 88 128 122 145 85 76 178 171 117 285 249 209 181 201 210 213 251 256 210 190 191 185 177 174 167 159 153 141 123 118 123 126 132 136 135 134 137 140 145 147 141 133 128 119 111 111 112 104 99
241 238 249 267 263 235 224 223 222 221 202 173 153 74 69 124 146 164 193 212 231 242 255 309 270 247 280 307 281 321 339 323 331 31 1 76 63 1 358 79 131 171 139 134 154 123 89 279 248 201 203 223 221 235 272 262 225 212 207 187 184 189 158 137 134 123 113 114 120 125 132 133 132 137 142 144 149 151 144 137 132 125 123 126 123 112 111
233 242 259 269 249 218 209 202 206 205 182 171 181 199 89 117 127 130 148 187 220 221 205 248 259 235 179 259 270 336 3 331 331 56 38 28 53 5 4 52 85 195 195 126 126 110 88 3 263 225 231 235 238 253 253 239 230 241 218 181 180 172 152 146 139 128 123 129 137 139 139 140 145 153 151 148 151 150 142 137 135 129 125 126 125 122 121
230 246 262 249 225 226 173 158 177 179 167 168 189 205 168 149 168 170 160 179 222 213 196 227 241 213 196 232 258 329 35 305 305 37 88 3 1 356 337 14 22 310 253 154 141 159 209 237 202 237 245 234 241 259 260 238 228 225 190 176 178 166 159 163 159 149 150 160 165 162 158 156 160 162 155 144 142 138 133 134 134 131 129 131 131 128 126
224 236 235 212 220 269 298 163 167 161 148 154 201 222 154 197 214 166 152 194 223 212 204 220 230 208 210 234 256 265 167 225 303 337 117 99 2 285 179 165 169 183 208 225 167 176 230 238 206 226 242 229 222 242 254 246 246 222 173 168 175 174 174 177 173 156 145 150 158 162 161 155 153 155 153 149 146 143 142 141 139 137 136 137 136 135 133
212 219 220 238 279 297 295 165 158 153 139 144 221 167 119 185 206 173 184 219 228 219 204 205 218 215 207 213 229 237 208 165 296 276 133 98 345 234 150 124 112 215 208 203 158 156 220 233 217 226 241 234 216 197 182 213 245 219 181 178 178 177 179 177 163 133 122 131 142 151 152 149 149 150 153 155 153 148 146 145 143 143 143 141 140 140 139
252 264 279 289 295 295 271 152 145 142 105 98 150 185 215 229 214 205 214 230 246 236 189 191 216 249 190 180 197 222 212 160 189 241 115 118 205 213 110 97 127 228 205 160 118 166 212 228 228 228 236 235 217 177 164 198 215 201 195 192 179 173 176 173 157 141 142 144 144 144 149 154 154 151 151 153 149 145 145 147 147 146 146 145 144 144 144
276 278 281 281 279 269 193 170 160 117 101 89 77 138 219 230 232 228 223 222 237 236 191 184 209 244 175 173 183 206 307 213 217 82 96 133 179 141 115 125 179 214 197 94 158 201 215 227 232 230 229 236 233 204 181 186 187 183 191 192 179 171 169 160 140 132 140 144 143 143 146 150 149 148 150 150 144 140 143 148 150 150 149 146 144 145 147
279 262 244 229 228 204 151 201 208 152 167 217 208 190 200 210 210 208 206 200 205 206 179 160 187 209 190 173 173 170 165 183 184 95 77 83 98 146 164 171 176 173 186 202 211 223 232 236 237 238 233 238 245 222 184 174 174 174 175 172 164 160 155 142 131 129 132 134 134 136 137 137 138 142 149 151 147 144 142 142 147 151 151 147 143 144 148
261 224 183 140 265 262 129 238 280 208 205 212 205 195 204 206 190 190 198 206 202 173 126 126 175 217 213 172 179 191 186 166 154 141 142 194 221 202 179 156 137 172 223 229 224 231 241 236 226 221 224 231 237 218 181 175 176 167 157 156 160 162 156 148 142 140 137 137 138 138 137 137 138 141 147 152 152 151 149 149 150 151 148 142 140 145 150
244 168 103 113 237 267 215 179 187 202 210 208 201 201 209 215 205 198 208 237 217 161 114 128 204 241 247 211 182 179 191 168 150 140 160 182 186 175 108 122 189 205 224 233 230 234 243 245 234 225 227 229 227 196 167 168 171 164 156 156 163 165 159 152 147 143 141 142 141 139 139 139 138 136 138 141 147 151 154 156 157 155 151 145 144 148 151
264 87 97 130 183 234 223 205 209 227 237 216 212 218 225 247 263 244 225 236 250 212 92 169 237 242 247 246 230 205 187 163 136 133 206 194 151 104 87 225 216 209 219 231 235 240 247 249 244 237 233 227 204 175 168 170 174 175 167 158 157 159 156 150 144 140 140 141 139 137 138 138 134 132 133 134 138 147 153 155 157 157 154 150 149 151 152
235 167 154 178 187 190 198 213 247 262 243 223 234 241 237 261 272 265 222 221 253 184 149 195 234 221 190 211 216 192 164 149 145 161 218 73 86 76 43 234 226 218 221 232 239 244 246 245 243 241 233 209 184 178 177 175 176 176 168 158 157 158 155 149 146 146 146 143 139 137 138 136 133 132 132 130 130 138 148 153 155 155 153 150 149 149 150
265 197 197 240 220 211 223 282 296 268 239 217 241 253 215 245 285 322 31 34 287 263 129 127 277 258 200 187 177 175 193 197 168 161 170 158 155 167 222 231 224 219 219 228 241 251 252 249 254 256 230 204 192 185 180 176 176 174 167 161 161 158 151 145 144 145 144 140 135 135 139 139 135 133 131 129 130 138 148 153 153 152 151 150 149 148 149
261 235 219 231 234 217 187 219 249 250 232 117 120 262 300 313 311 7 87 133 243 279 59 64 318 268 252 161 142 167 193 176 136 155 193 198 176 175 217 230 227 223 218 219 234 247 255 262 271 258 227 205 197 192 181 172 171 169 161 156 154 149 140 135 136 141 144 145 144 143 143 143 141 140 139 138 137 139 144 149 151 150 150 151 151 150 151
242 222 218 235 242 227 179 203 245 253 261 312 323 311 323 310 261 305 32 28 227 213 179 162 196 217 193 179 161 157 159 149 145 171 211 206 170 179 223 236 233 233 238 239 241 251 268 271 260 251 235 205 192 189 178 165 160 158 153 149 145 139 134 134 137 142 145 146 144 142 141 142 145 146 144 141 136 132 132 140 148 149 149 151 153 153 154
211 218 216 234 242 236 243 264 274 264 258 269 279 281 283 275 266 316 325 308 269 222 164 134 125 133 159 179 169 140 141 153 152 157 219 221 200 210 234 251 254 246 252 263 269 274 290 282 263 252 248 224 186 171 161 153 151 149 148 146 144 143 143 143 144 143 142 141 139 136 134 136 141 142 140 138 136 134 134 140 148 150 150 152 154 154 153
Height
823 821 819 816 814 811 809 806 804 800 796 793 792 791 789 789 789 784 782 783 782 786 795 799 798 795 793 791 790 789 788 788 788 786 787 788 787 788 789 789 790 790 791 794 795 796 799 802 800 800 800 796 791 788 788 790 790 789 793 794 791 794 802 806 804 798 792 789 789 790 790 792 796 800 801 801 803 803 806 813 812 807 803 801 809 812 794
823 821 819 816 814 812 809 807 805 802 800 798 796 794 793 794 792 786 784 783 783 788 795 797 796 794 792 791 789 787 787 787 786 787 786 785 786 788 787 786 787 788 789 791 793 795 799 802 800 799 800 794 787 787 787 788 789 788 790 791 790 797 808 811 810 810 807 804 803 799 794 796 799 803 805 804 804 806 806 808 812 810 802 800 808 807 791
823 821 819 816 814 812 809 808 806 803 802 800 798 797 796 795 792 789 785 783 785 789 791 791 793 793 793 793 791 788 787 784 783 785 784 782 784 785 784 783 783 786 790 791 793 794 796 799 799 798 798 793 786 785 787 787 787 787 788 786 787 799 810 811 813 818 819 817 812 803 798 798 799 801 805 806 804 804 805 805 808 810 807 802 802 798 787
823 821 819 816 814 812 810 808 806 804 802 800 799 799 796 794 793 792 788 785 786 789 790 790 792 792 793 794 792 792 790 784 781 783 783 782 782 783 783 782 783 788 791 792 794 795 794 796 797 796 796 792 787 786 786 787 787 787 787 785 789 802 811 811 813 813 810 809 805 797 794 797 800 802 803 806 804 801 801 803 804 811 814 805 801 802 796
823 821 819 817 814 812 810 807 806 804 802 801 800 799 796 796 798 798 795 792 791 791 791 792 792 792 792 793 792 792 791 788 784 783 782 782 782 782 783 782 784 788 790 792 795 796 795 795 795 795 795 791 788 788 787 786 787 786 786 787 791 802 808 809 812 810 805 806 804 799 796 797 800 802 802 805 804 799 802 809 811 815 816 806 802 808 804
822 820 818 816 814 812 810 808 806 804 803 801 800 799 797 797 798 798 798 798 797 795 794 793 793 793 792 793 792 791 791 791 788 784 782 781 781 783 784 783 782 783 785 788 793 796 798 797 795 795 796 794 790 789 787 786 785 785 787 788 790 797 804 806 807 806 803 803 802 800 801 803 803 803 803 804 803 801 804 811 811 812 813 808 805 807 805
822 820 818 816 814 812 810 808 806 804 803 801 800 800 797 797 798 797 797 798 798 797 795 795 795 793 793 794 793 792 792 791 789 786 785 783 781 782 785 782 779 780 782 784 790 795 796 798 797 794 795 797 794 792 791 788 785 784 787 790 792 795 801 805 807 805 802 802 803 802 804 807 806 806 807 805 802 801 803 805 804 804 805 803 802 804 802
822 820 818 816 814 812 810 809 806 804 803 801 801 801 800 800 800 798 797 797 797 797 796 796 795 793 795 795 792 791 792 790 789 787 786 786 783 782 784 781 779 781 782 782 785 786 784 787 789 790 793 797 796 793 792 790 787 786 788 792 793 796 803 807 806 806 805 802 803 803 804 807 807 807 808 807 803 803 804 804 803 802 802 800 798 801 800
822 820 818 816 814 813 811 810 807 805 803 802 802 803 803 803 802 802 801 798 797 798 797 797 797 795 795 794 791 791 791 789 790 786 782 782 782 781 783 783 782 784 785 782 779 777 776 777 778 779 784 788 788 787 788 788 788 788 791 793 791 795 805 809 807 810 810 805 807 807 804 806 808 804 805 808 806 803 802 802 801 801 804 804 801 801 801
821 820 818 816 814 813 811 811 809 806 805 804 804 805 804 804 803 802 802 800 799 798 798 799 799 795 794 794 792 792 790 788 790 788 781 779 779 779 781 783 784 786 786 780 772 769 772 773 773 775 778 779 781 783 784 785 786 788 791 795 796 797 802 807 809 812 810 809 811 810 808 813 813 805 803 809 810 807 803 801 800 799 801 803 801 800 800
821 819 818 815 814 813 812 811 810 808 807 807 807 807 807 806 805 803 803 801 800 800 799 799 798 795 794 795 794 792 790 788 790 791 787 781 778 778 780 781 783 783 778 770 765 766 770 772 773 775 778 780 783 783 784 785 787 788 788 792 800 800 799 806 811 810 810 813 813 812 817 822 815 805 803 808 808 807 806 802 799 798 797 795 795 797 800
820 819 817 815 814 813 812 812 811 810 809 809 808 808 808 808 807 805 804 803 802 802 800 797 797 796 794 796 796 793 791 789 788 790 789 783 779 778 778 781 783 778 769 764 764 767 770 774 777 778 780 783 785 785 786 788 789 789 787 789 797 799 801 810 814 810 810 813 814 821 826 819 806 801 802 803 802 803 804 801 797 796 795 792 795 797 798
819 818 817 815 814 812 812 812 811 810 810 809 809 809 808 808 808 805 804 803 801 800 799 797 797 797 796 796 797 793 790 788 787 788 788 784 780 777 775 776 777 771 765 764 765 769 776 782 784 784 784 785 786 787 789 791 792 791 788 788 791 796 801 808 813 815 814 814 819 825 821 809 803 803 802 802 804 804 805 803 796 792 791 790 793 796 795
818 817 816 814 813 812 811 811 811 810 810 809 809 808 808 807 807 806 805 804 801 800 801 798 795 795 795 795 795 793 790 788 785 784 784 783 780 776 772 771 769 765 764 765 766 772 782 789 791 792 793 793 794 795 793 794 796 794 792 792 790 793 798 802 810 818 819 819 819 816 811 809 809 805 800 800 801 800 802 802 794 786 787 788 790 793 794
817 816 815 814 812 812 811 810 810 810 809 809 808 808 807 807 807 806 806 804 802 801 800 796 793 793 795 794 795 794 791 789 787 784 782 780 778 774 770 768 766 764 765 767 772 777 783 790 798 803 803 804 806 804 797 795 796 795 797 798 793 793 795 796 805 817 820 821 821 819 818 816 808 800 796 794 794 792 795 800 794 785 784 787 788 792 794
815 815 814 813 812 811 810 809 810 809 809 809 808 807 807 806 806 806 806 805 804 799 795 792 792 793 794 794 794 794 793 791 790 786 782 780 777 773 769 767 766 766 766 770 776 780 784 792 801 804 805 807 809 807 803 801 799 797 797 797 794 796 797 795 802 814 818 818 821 824 822 811 800 796 794 793 793 791 794 802 798 785 783 786 786 790 793
814 813 812 812 810 810 809 808 808 808 808 808 807 807 806 805 805 806 805 805 804 798 792 791 793 793 794 794 793 793 793 791 791 790 787 783 779 775 771 767 766 765 767 771 777 781 786 797 804 804 804 807 806 805 805 805 803 800 798 797 796 798 799 799 804 811 814 814 816 817 812 802 797 795 793 792 791 792 802 813 802 786 785 786 785 788 791
813 812 811 810 809 809 808 807 807 807 807 808 807 806 806 805 805 806 805 805 805 798 791 790 792 792 792 792 791 791 791 791 791 792 789 784 782 780 776 772 770 767 767 772 779 783 787 796 801 798 800 807 806 803 804 803 803 805 804 804 804 804 805 808 807 808 813 815 814 812 804 796 795 795 793 792 794 799 810 811 796 786 788 787 786 789 790
811 810 809 809 808 808 807 807 807 806 807 807 806 805 805 804 804 805 805 806 805 798 791 789 791 791 789 790 790 790 790 790 791 792 790 786 783 780 776 774 772 770 771 773 779 784 786 793 799 797 797 804 805 802 802 801 802 807 808 806 807 807 811 814 811 810 815 814 812 813 806 794 792 795 794 794 799 804 804 797 789 789 788 786 787 789 789
809 808 808 807 807 806 806 806 806 806 806 806 806 805 805 804 804 805 804 805 805 800 791 789 790 789 789 790 791 790 790 791 791 792 791 787 782 780 779 776 774 774 774 774 781 787 786 789 799 798 794 797 800 799 800 800 799 801 802 801 800 799 804 810 809 810 816 817 817 818 811 796 792 795 795 795 798 797 792 789 790 790 787 786 788 788 788
807 807 806 806 805 805 805 805 805 805 805 805 805 804 804 803 804 804 804 804 806 801 792 788 788 789 788 789 789 789 790 789 788 788 788 786 785 785 784 782 780 779 774 771 779 787 784 786 795 795 791 794 798 797 797 798 797 798 798 798 797 795 797 803 804 804 809 813 812 808 801 795 793 793 793 793 792 791 789 789 790 788 787 787 787 787 788
806 805 805 805 804 804 804 804 804 804 803 804 804 804 804 803 803 804 804 804 804 800 792 788 788 787 785 785 785 786 786 786 785 786 786 786 786 784 782 782 781 779 774 771 775 780 782 785 790 790 790 793 796 798 799 797 794 796 798 797 795 792 792 794 795 797 801 801 798 795 793 795 795 793 792 792 790 790 789 788 788 788 788 787 787 787 788
804 804 803 803 803 803 803 803 803 803 802 803 803 802 803 803 802 803 803 803 802 798 791 788 787 783 780 780 780 780 781 782 782 782 784 786 786 783 781 780 777 774 772 772 773 774 775 778 781 782 786 788 790 795 801 799 794 793 793 791 791 792 792 791 791 795 798 797 795 795 795 794 793 793 793 792 791 789 789 788 790 790 788 789 790 790 789
803 802 802 802 802 802 802 802 802 802 801 802 802 801 801 802 802 802 802 802 802 797 790 786 784 780 777 777 777 776 777 777 777 778 779 783 784 781 777 775 773 772 772 771 771 772 772 775 779 780 782 783 783 787 793 795 792 790 790 789 790 792 792 791 792 795 797 797 796 796 795 794 794 793 793 792 791 790 789 790 792 792 792 793 794 794 793
801 801 801 801 801 801 801 801 800 800 800 800 800 800 801 801 801 802 802 801 801 800 795 788 781 777 775 775 775 775 774 774 774 775 776 778 779 777 774 771 770 772 772 770 771 772 770 772 777 778 778 779 780 783 787 789 787 787 787 788 789 789 789 790 793 795 796 796 796 795 794 794 793 792 791 791 791 791 790 791 792 793 794 795 796 797 798
799 800 799 800 800 799 800 799 799 799 799 799 799 799 800 799 800 800 801 800 800 801 799 792 780 774 775 775 771 771 772 771 771 772 773 773 773 773 773 771 770 771 772 770 770 770 768 769 772 773 775 777 778 780 785 788 787 787 786 785 785 786 787 789 791 794 796 796 796 796 795 794 794 792 791 790 789 790 791 791 791 791 792 795 796 797 799
798 798 798 798 799 798 798 798 798 798 798 798 798 798 798 798 799 799 799 800 799 798 797 792 782 775 775 773 768 767 768 768 768 769 769 770 771 772 772 772 772 773 773 771 769 769 767 768 770 773 776 777 777 781 785 786 785 785 784 783 783 785 787 790 791 793 793 790 790 791 792 792 793 792 791 791 791 790 791 792 791 791 791 794 798 800 800
797 797 797 797 797 797 797 797 797 797 797 797 797 797 796 796 797 797 798 799 799 797 796 793 786 779 775 770 765 765 766 765 765 766 766 766 768 769 770 771 772 773 774 773 771 768 766 768 771 775 776 774 777 782 785 783 783 783 780 779 778 778 781 783 783 785 784 781 782 785 786 787 791 790 790 791 791 790 791 792 792 792 792 793 798 803 804
795 796 796 796 796 796 796 796 796 796 796 796 795 795 794 793 794 795 796 797 798 797 797 795 788 781 774 768 763 763 763 763 763 763 763 764 765 766 768 769 770 771 771 772 770 768 767 769 771 773 771 769 773 781 783 783 784 780 774 772 773 772 773 774 773 776 778 777 779 782 783 785 789 790 790 791 790 790 792 793 792 791 792 793 798 804 807
794 794 795 794 795 795 794 794 795 794 795 795 795 794 793 791 791 792 793 794 796 797 797 796 790 780 773 768 765 762 762 761 761 761 760 761 762 763 764 766 768 768 768 767 767 768 770 770 769 771 770 768 771 778 781 784 784 776 768 769 772 772 772 773 772 773 775 776 779 782 783 784 788 790 791 792 791 790 792 793 792 792 793 795 799 804 807
793 793 793 793 793 793 793 793 793 793 794 794 794 793 791 789 790 790 790 792 795 795 796 795 789 781 774 769 765 763 761 760 760 760 759 759 760 761 762 765 767 768 767 765 765 767 770 769 768 770 771 769 771 775 779 783 783 775 766 768 772 772 772 774 774 774 775 777 780 783 785 787 790 792 793 793 792 791 791 793 794 794 795 799 803 805 807
792 792 792 792 792 792 792 792 792 793 793 792 792 791 790 789 790 790 790 792 794 794 795 794 789 785 780 771 764 762 762 760 759 759 758 759 759 760 762 764 766 766 765 765 766 768 770 769 768 769 770 771 772 776 780 781 779 772 767 768 771 772 773 774 774 775 776 776 779 784 790 792 791 792 793 794 794 793 793 794 796 797 800 804 806 806 806
790 790 790 791 790 791 791 791 791 791 791 791 790 790 789 789 791 790 791 792 793 793 794 793 791 789 783 773 765 763 761 760 760 760 759 760 760 760 763 764 764 765 766 767 769 770 771 770 770 771 772 772 774 778 780 777 772 769 770 771 773 773 773 773 774 775 776 776 775 779 786 790 790 791 793 795 796 796 795 796 798 801 804 807 807 806 806
789 789 789 789 789 790 790 790 790 790 790 789 789 787 787 788 790 790 791 792 792 793 793 792 791 788 780 771 767 764 761 761 762 762 761 761 760 761 764 764 763 765 768 769 771 773 772 770 771 772 772 772 775 779 778 772 767 769 772 773 774 774 774 775 776 776 777 777 776 776 779 784 789 792 795 796 798 798 798 798 800 803 805 807 807 807 808
788 788 788 788 788 789 789 789 789 789 789 788 787 786 786 787 788 789 790 791 791 793 792 790 790 788 781 775 771 766 761 762 765 765 764 763 761 761 764 765 767 770 771 771 773 775 773 772 773 773 772 774 777 779 774 767 766 770 773 773 773 774 774 775 776 777 778 779 779 780 781 784 788 792 796 798 799 799 800 800 801 802 805 807 808 808 809
787 787 787 787 787 788 788 788 788 787 787 786 786 785 785 785 786 788 790 790 791 792 790 789 789 787 783 780 775 767 762 765 767 766 765 764 763 764 763 764 770 774 773 772 775 776 774 772 773 774 774 776 776 773 768 764 765 767 769 770 771 770 768 769 772 776 779 780 781 782 784 785 788 792 796 798 800 800 801 802 803 803 806 809 810 810 810
786 786 786 786 786 787 786 786 786 785 785 785 785 785 785 785 786 789 790 790 791 791 790 790 788 784 782 782 777 769 766 767 767 767 767 767 768 768 765 766 772 775 774 774 776 775 773 773 774 775 775 773 770 767 765 765 765 765 765 767 768 767 767 768 770 774 779 783 784 785 786 788 791 793 796 798 800 801 802 803 804 805 807 809 811 811 813
785 785 785 785 785 785 784 783 783 783 783 784 784 785 785 785 787 789 790 790 789 788 789 789 786 781 782 782 776 769 768 769 768 769 770 770 771 771 770 771 774 775 777 777 774 772 774 777 777 776 773 769 766 764 764 764 764 764 764 765 766 766 768 768 768 771 778 784 786 787 788 791 793 794 795 797 799 800 801 803 804 805 807 810 811 813 814
785 784 784 784 784 782 781 781 781 782 783 783 784 784 784 784 786 788 788 788 787 787 787 787 782 778 780 780 774 769 769 770 770 770 770 771 772 774 775 777 776 777 781 781 774 771 776 781 781 778 773 767 765 763 761 761 763 764 763 764 765 765 766 766 764 764 768 772 775 778 780 784 789 791 793 796 798 800 801 803 805 806 808 810 812 814 816
784 784 783 782 781 780 780 780 780 781 782 783 783 783 784 784 784 785 786 788 788 785 783 782 779 776 776 776 774 771 770 770 771 771 771 772 772 774 777 779 778 779 784 782 775 772 776 779 780 778 772 765 762 761 760 760 762 762 762 764 764 764 765 764 763 763 764 765 769 772 774 777 782 786 790 793 796 799 802 803 805 807 809 811 813 814 816
782 782 781 780 780 780 779 779 780 781 782 783 783 784 785 785 783 782 784 786 784 780 777 776 776 775 773 773 774 772 769 769 769 770 771 772 773 773 777 779 778 781 784 780 773 772 775 777 779 777 769 760 759 760 759 760 761 761 763 764 764 764 765 765 765 766 767 769 772 775 777 779 782 785 789 792 794 797 800 803 806 808 810 811 814 815 817
781 781 780 780 780 779 779 779 780 780 781 783 783 784 786 786 782 780 781 780 776 773 771 771 771 770 769 769 771 770 768 768 769 769 771 774 774 774 778 781 782 782 781 775 771 774 777 778 778 773 763 756 756 758 758 758 759 761 763 764 763 763 764 765 765 767 768 770 773 776 778 781 783 785 788 792 794 797 800 802 805 808 810 812 814 816 818
780 780 780 780 779 778 778 779 779 780 783 785 783 784 787 786 781 778 777 774 770 769 768 767 767 767 766 767 768 768 768 768 768 768 772 775 774 774 779 783 784 781 776 773 775 779 780 777 772 765 757 754 754 755 757 758 759 761 763 763 762 762 764 764 765 767 769 771 773 776 779 782 785 787 790 792 795 798 801 803 805 807 810 812 815 817 819
780 780 779 779 779 778 778 779 779 781 785 787 783 782 783 782 778 775 774 771 767 766 766 765 766 767 766 765 766 767 768 767 768 770 774 776 775 775 779 781 779 776 775 775 777 778 775 770 764 758 754 753 752 752 755 757 758 760 762 763 762 763 764 765 766 768 770 772 775 777 779 783 786 789 791 793 795 797 801 804 806 808 810 813 815 818 820
779 779 778 778 779 778 778 779 781 781 782 781 780 777 775 774 772 771 769 766 764 765 765 765 766 767 766 764 765 766 766 765 767 772 776 777 777 777 777 776 775 776 777 778 778 777 773 766 758 754 752 751 748 749 752 755 756 757 759 761 762 763 763 764 766 767 769 772 775 778 780 783 786 789 792 794 795 796 799 803 806 808 810 813 816 818 821
778 777 777 778 779 779 778 780 782 780 775 773 773 772 769 768 768 768 766 765 764 765 765 766 766 767 766 765 765 765 764 764 767 772 774 775 777 777 776 776 777 778 778 779 778 775 768 759 752 750 749 746 745 747 751 752 753 755 756 758 760 761 762 763 765 767 769 772 774 777 780 783 785 788 791 794 796 798 799 802 805 807 810 813 816 818 821
777 777 778 778 778 779 779 777 775 772 770 768 768 767 766 766 767 765 764 764 763 763 765 766 767 767 766 765 764 764 762 763 769 774 773 772 775 778 778 778 779 778 778 778 774 767 758 751 747 745 744 744 745 748 750 751 752 753 754 755 757 760 761 763 765 767 769 772 774 777 780 783 785 788 791 794 797 799 800 802 805 807 810 812 815 818 821
777 778 778 776 775 776 776 773 769 768 767 767 767 767 767 767 766 764 763 764 763 763 765 766 766 766 765 763 763 763 762 763 769 774 774 773 777 781 781 780 778 775 773 770 764 756 750 746 742 741 742 744 745 747 748 749 751 752 753 755 756 758 760 762 765 767 769 772 774 777 781 783 786 789 791 794 798 800 802 804 806 808 810 813 815 818 821
778 778 777 776 776 774 773 771 770 767 766 766 767 767 767 767 766 764 765 766 765 764 765 765 765 766 765 762 762 764 764 764 768 774 775 775 778 780 781 780 777 772 765 760 754 749 744 742 740 741 743 744 744 744 745 747 748 749 751 753 755 757 759 761 764 767 769 772 774 778 781 784 786 789 791 794 797 801 803 805 807 809 811 813 815 818 820
778 777 776 775 774 772 772 772 771 768 766 767 768 767 766 766 765 765 766 768 767 765 765 767 768 768 766 764 765 766 765 763 767 772 774 773 774 776 777 775 770 763 755 750 747 744 741 740 741 741 742 742 743 743 743 744 746 748 750 752 754 757 759 761 764 767 769 771 774 777 781 783 786 788 791 793 797 800 804 807 808 810 812 813 815 817 819
777 776 774 771 770 769 769 770 770 769 767 767 767 766 766 766 765 764 765 766 766 766 767 768 769 768 767 765 765 765 761 760 764 769 769 767 768 771 770 764 757 751 746 743 742 741 741 741 742 741 740 741 742 743 743 744 746 748 749 752 755 758 760 763 766 769 771 772 774 778 781 783 785 787 790 793 796 800 805 808 810 811 812 814 816 817 819
776 773 771 770 769 770 770 770 769 769 768 767 767 766 765 765 764 764 764 765 765 765 765 766 767 768 767 763 760 759 759 761 766 769 767 763 761 760 756 750 745 743 742 740 739 740 741 742 741 740 740 740 741 741 742 744 746 747 750 752 755 758 760 763 766 770 772 774 776 779 782 785 787 789 791 794 797 800 804 807 810 812 813 815 817 818 820